| time (UTC) | temp C | wind direction | speed KPH | gust KPH | rain 1hr cm | rain 24hr cm | rain mn cm | humidity % | barometer mb |
| 20260507123001 | 10 | 216 | 19.3 | 25.7 | 0.00 | 0.00 | 0.00 | 43 | 1015.5 |
| 20260507121501 | 10 | 207 | 16.1 | 19.3 | 0.00 | 0.00 | 0.00 | 43 | 1015.5 |
| 20260507120059 | 12 | 213 | 14.5 | 16.1 | 0.00 | 0.00 | 0.00 | 30 | 1015.4 |
| 20260507114600 | 11 | 196 | 9.7 | 14.5 | 0.00 | 0.00 | 0.00 | 32 | 1015.5 |
| 20260507113056 | 11 | 208 | 11.3 | 16.1 | 0.00 | 0.00 | 0.00 | 34 | 1015.5 |
| 20260507111556 | 11 | 203 | 9.7 | 16.1 | 0.00 | 0.00 | 0.00 | 35 | 1015.5 |
| 20260507104601 | 10 | 209 | 6.4 | 12.9 | 0.00 | 0.00 | 0.00 | 29 | 1015.4 |
| 20260507103125 | 10 | 207 | 8.0 | 12.9 | 0.00 | 0.00 | 0.00 | 34 | 1015.4 |
| 20260507101552 | 11 | 211 | 8.0 | 12.9 | 0.00 | 0.00 | 0.00 | 30 | 1015.2 |
| 20260507100103 | 11 | 206 | 4.8 | 8.0 | 0.00 | 0.00 | 0.00 | 27 | 1015.2 |
| 20260507094550 | 11 | 206 | 4.8 | 8.0 | 0.00 | 0.00 | 0.00 | 35 | 1015.1 |
| 20260507093048 | 12 | 303 | 0.0 | 4.8 | 0.00 | 0.00 | 0.00 | 24 | 1015.1 |
| 20260507091548 | 11 | 269 | 3.2 | 9.7 | 0.00 | 0.00 | 0.00 | 25 | 1015.0 |
| 20260507090054 | 11 | 229 | 3.2 | 6.4 | 0.00 | 0.00 | 0.00 | 25 | 1015.0 |
| 20260507084548 | 11 | 261 | 0.0 | 6.4 | 0.00 | 0.00 | 0.00 | 27 | 1015.0 |
| 20260507083045 | 11 | 41 | 3.2 | 4.8 | 0.00 | 0.00 | 0.00 | 29 | 1015.1 |
| 20260507081542 | 12 | 41 | 1.6 | 3.2 | 0.00 | 0.00 | 0.00 | 28 | 1015.0 |
| 20260507080046 | 11 | 41 | 1.6 | 8.0 | 0.00 | 0.00 | 0.00 | 27 | 1015.1 |
| 20260507074538 | 11 | 11 | 4.8 | 9.7 | 0.00 | 0.00 | 0.00 | 30 | 1015.1 |
| 20260507073039 | 10 | 318 | 6.4 | 9.7 | 0.00 | 0.00 | 0.00 | 35 | 1015.0 |
| 20260507071530 | 9 | 28 | 6.4 | 9.7 | 0.00 | 0.00 | 0.00 | 38 | 1015.0 |
| 20260507070027 | 8 | 9 | 4.8 | 9.7 | 0.00 | 0.00 | 0.00 | 42 | 1015.0 |
| 20260507064523 | 8 | 360 | 4.8 | 12.9 | 0.00 | 0.00 | 0.00 | 43 | 1015.0 |
| 20260507063020 | 7 | 31 | 8.0 | 14.5 | 0.00 | 0.00 | 0.00 | 43 | 1014.9 |
| 20260507061516 | 6 | 17 | 9.7 | 14.5 | 0.00 | 0.00 | 0.00 | 46 | 1014.8 |
| 20260507060019 | 6 | 26 | 11.3 | 14.5 | 0.00 | 0.00 | 0.00 | 47 | 1014.8 |
| 20260507054509 | 5 | 17 | 6.4 | 12.9 | 0.00 | 0.00 | 0.00 | 50 | 1014.7 |
| 20260507053007 | 5 | 13 | 9.7 | 16.1 | 0.00 | 0.00 | 0.00 | 50 | 1014.7 |
| 20260507051504 | 4 | 25 | 9.7 | 16.1 | 0.00 | 0.00 | 0.00 | 53 | 1014.6 |
| 20260507050007 | 4 | 360 | 8.0 | 14.5 | 0.00 | 0.00 | 0.00 | 54 | 1014.6 |
| 20260507044604 | 3 | 19 | 9.7 | 14.5 | 0.00 | 0.00 | 0.00 | 56 | 1014.6 |
| 20260507043058 | 3 | 26 | 8.0 | 14.5 | 0.00 | 0.00 | 0.00 | 57 | 1014.6 |
| 20260507041603 | 3 | 24 | 11.3 | 16.1 | 0.00 | 0.00 | 0.00 | 57 | 1014.6 |
| 20260507040055 | 3 | 25 | 9.7 | 16.1 | 0.00 | 0.00 | 0.00 | 58 | 1014.5 |
| 20260507034552 | 2 | 28 | 11.3 | 17.7 | 0.00 | 0.00 | 0.00 | 58 | 1014.4 |
| 20260507033052 | 2 | 57 | 11.3 | 17.7 | 0.00 | 0.00 | 0.00 | 58 | 1014.4 |
| 20260507031550 | 2 | 29 | 12.9 | 17.7 | 0.00 | 0.00 | 0.00 | 58 | 1014.3 |
| 20260507030050 | 2 | 32 | 11.3 | 16.1 | 0.00 | 0.00 | 0.00 | 57 | 1014.2 |
| 20260507024552 | 2 | 34 | 11.3 | 16.1 | 0.00 | 0.00 | 0.00 | 57 | 1014.2 |
| 20260507023048 | 2 | 321 | 9.7 | 14.5 | 0.00 | 0.00 | 0.00 | 58 | 1014.2 |
| 20260507021600 | 2 | 11 | 9.7 | 14.5 | 0.00 | 0.00 | 0.00 | 59 | 1014.3 |
| 20260507020105 | 2 | 34 | 11.3 | 17.7 | 0.00 | 0.00 | 0.00 | 58 | 1014.2 |
| 20260507014606 | 2 | 19 | 11.3 | 14.5 | 0.00 | 0.00 | 0.00 | 59 | 1014.2 |
| 20260507013047 | 2 | 33 | 6.4 | 12.9 | 0.00 | 0.00 | 0.00 | 58 | 1014.2 |
| 20260507011551 | 2 | 26 | 8.0 | 12.9 | 0.00 | 0.00 | 0.00 | 60 | 1014.1 |
| 20260507010044 | 2 | 19 | 8.0 | 14.5 | 0.00 | 0.00 | 0.00 | 60 | 1014.1 |
| 20260507004538 | 2 | 5 | 11.3 | 16.1 | 0.00 | 0.00 | 0.00 | 60 | 1014.0 |
| 20260507003036 | 2 | 17 | 8.0 | 14.5 | 0.00 | 0.00 | 0.00 | 62 | 1013.9 |
| 20260507001553 | 2 | 12 | 8.0 | 14.5 | 0.00 | 0.00 | 0.00 | 62 | 1013.7 |
| 20260507000038 | 2 | 360 | 9.7 | 14.5 | 0.00 | 0.00 | 0.00 | 63 | 1013.7 |
| 20260506234536 | 2 | 319 | 9.7 | 14.5 | 0.00 | 0.00 | 0.00 | 64 | 1013.6 |
| 20260506233030 | 1 | 13 | 8.0 | 16.1 | 0.00 | 0.00 | 0.00 | 64 | 1013.5 |
| 20260506231533 | 1 | 5 | 8.0 | 14.5 | 0.00 | 0.00 | 0.00 | 63 | 1013.5 |
| 20260506230030 | 1 | 360 | 9.7 | 14.5 | 0.00 | 0.00 | 0.00 | 62 | 1013.5 |
| 20260506224525 | 1 | 18 | 8.0 | 12.9 | 0.00 | 0.00 | 0.00 | 60 | 1013.6 |
| 20260506223023 | 1 | 9 | 8.0 | 12.9 | 0.00 | 0.00 | 0.00 | 59 | 1013.6 |
| 20260506221519 | 2 | 319 | 6.4 | 9.7 | 0.00 | 0.00 | 0.00 | 58 | 1013.6 |
| 20260506220016 | 2 | 9 | 6.4 | 9.7 | 0.00 | 0.00 | 0.00 | 59 | 1013.4 |
| 20260506214513 | 2 | 298 | 4.8 | 9.7 | 0.00 | 0.00 | 0.00 | 58 | 1013.4 |
| 20260506213010 | 2 | 313 | 6.4 | 12.9 | 0.00 | 0.00 | 0.00 | 53 | 1013.4 |
| 20260506211511 | 2 | 360 | 8.0 | 9.7 | 0.00 | 0.00 | 0.00 | 52 | 1013.3 |
| 20260506204509 | 3 | 319 | 8.0 | 12.9 | 0.00 | 0.00 | 0.00 | 52 | 1013.3 |
| 20260506203004 | 3 | 319 | 8.0 | 12.9 | 0.00 | 0.00 | 0.00 | 50 | 1013.1 |
| 20260506201507 | 3 | 318 | 6.4 | 9.7 | 0.00 | 0.00 | 0.00 | 42 | 1013.2 |
| 20260506200009 | 3 | 298 | 6.4 | 11.3 | 0.00 | 0.00 | 0.00 | 38 | 1013.2 |
| 20260506194502 | 4 | 298 | 4.8 | 6.4 | 0.00 | 0.00 | 0.00 | 34 | 1013.3 |
| 20260506193001 | 5 | 298 | 1.6 | 4.8 | 0.00 | 0.00 | 0.00 | 32 | 1013.4 |
| 20260506191501 | 5 | 298 | 1.6 | 4.8 | 0.00 | 0.00 | 0.00 | 31 | 1013.4 |
| 20260506190000 | 6 | 298 | 4.8 | 6.4 | 0.00 | 0.00 | 0.00 | 28 | 1013.4 |
| 20260506184604 | 6 | 298 | 3.2 | 6.4 | 0.00 | 0.00 | 0.00 | 29 | 1013.4 |
| 20260506183104 | 7 | 297 | 4.8 | 8.0 | 0.00 | 0.00 | 0.00 | 31 | 1013.3 |
| 20260506181606 | 8 | 268 | 4.8 | 9.7 | 0.00 | 0.00 | 0.00 | 31 | 1013.3 |
| 20260506180059 | 8 | 292 | 8.0 | 12.9 | 0.00 | 0.00 | 0.00 | 33 | 1013.3 |
| 20260506174557 | 7 | 302 | 3.2 | 6.4 | 0.00 | 0.00 | 0.00 | 46 | 1013.3 |
| 20260506173125 | 7 | 219 | 3.2 | 6.4 | 0.00 | 0.00 | 0.00 | 54 | 1013.3 |
| 20260506171559 | 7 | 219 | 4.8 | 8.0 | 0.00 | 0.00 | 0.00 | 53 | 1013.3 |
| 20260506170107 | 7 | 209 | 6.4 | 12.9 | 0.00 | 0.00 | 0.00 | 53 | 1013.4 |
| 20260506164554 | 7 | 189 | 6.4 | 12.9 | 0.00 | 0.00 | 0.00 | 51 | 1013.5 |
| 20260506163058 | 8 | 204 | 8.0 | 12.9 | 0.00 | 0.00 | 0.00 | 50 | 1013.5 |
| 20260506161553 | 8 | 184 | 6.4 | 14.5 | 0.00 | 0.00 | 0.00 | 48 | 1013.4 |
| 20260506160053 | 8 | 212 | 8.0 | 12.9 | 0.00 | 0.00 | 0.00 | 50 | 1013.3 |
| 20260506154608 | 8 | 223 | 11.3 | 17.7 | 0.00 | 0.00 | 0.00 | 50 | 1013.3 |
| 20260506153053 | 8 | 198 | 12.9 | 16.1 | 0.00 | 0.00 | 0.00 | 50 | 1013.5 |
| 20260506151550 | 8 | 192 | 8.0 | 16.1 | 0.00 | 0.00 | 0.00 | 49 | 1013.5 |
| 20260506150050 | 9 | 196 | 11.3 | 16.1 | 0.00 | 0.00 | 0.00 | 42 | 1013.5 |
| 20260506144554 | 8 | 202 | 11.3 | 19.3 | 0.00 | 0.00 | 0.00 | 44 | 1013.5 |
| 20260506143048 | 8 | 211 | 12.9 | 19.3 | 0.00 | 0.00 | 0.00 | 43 | 1013.5 |
| 20260506141547 | 8 | 202 | 14.5 | 17.7 | 0.00 | 0.00 | 0.00 | 39 | 1013.6 |
| 20260506140047 | 9 | 203 | 14.5 | 16.1 | 0.00 | 0.00 | 0.00 | 39 | 1013.6 |
| 20260506134545 | 8 | 200 | 12.9 | 17.7 | 0.00 | 0.00 | 0.00 | 41 | 1013.6 |
| 20260506133056 | 9 | 210 | 14.5 | 19.3 | 0.00 | 0.00 | 0.00 | 42 | 1013.6 |
| 20260506131543 | 10 | 210 | 14.5 | 17.7 | 0.00 | 0.00 | 0.00 | 38 | 1013.7 |
| 20260506130042 | 10 | 202 | 16.1 | 19.3 | 0.00 | 0.00 | 0.00 | 39 | 1013.6 |
| 20260506124540 | 10 | 203 | 12.9 | 16.1 | 0.00 | 0.00 | 0.00 | 41 | 1013.7 |